A4089 KDLF-KDLF

Flight info

Callsign A4089
Flight time 0h 3m
Altitude 2081
Route VFR
Aircraft C172/L-S/L

Departure

Time 2026-05-04 00:04
Airport Laughlin Air Force Base (KDLF)

Arrival

Time 2026-05-04 00:08
Airport Laughlin Air Force Base (KDLF)
Time Latitude Longitude Altitude Speed Heading
2026-05-03 23:50 29.36261 -100.78828 1083 ft 0 kts 315°
2026-05-03 23:58 29.36268 -100.78838 1083 ft 4 kts 327°
2026-05-03 23:58 29.36293 -100.78820 1083 ft 7 kts 50°
2026-05-03 23:58 29.36336 -100.78800 1083 ft 7 kts 327°
2026-05-03 23:58 29.36371 -100.78837 1083 ft 7 kts 315°
2026-05-03 23:59 29.36407 -100.78877 1082 ft 8 kts 315°
2026-05-03 23:59 29.36448 -100.78924 1081 ft 9 kts 315°
2026-05-03 23:59 29.36494 -100.78964 1080 ft 7 kts 352°
2026-05-03 23:59 29.36535 -100.78956 1080 ft 5 kts 34°
2026-05-04 00:00 29.36542 -100.78932 1080 ft 1 kts 93°
2026-05-04 00:00 29.36541 -100.78923 1080 ft 0 kts 90°
2026-05-04 00:01 29.36541 -100.78922 1080 ft 2 kts 94°
2026-05-04 00:01 29.36559 -100.78877 1080 ft 7 kts 34°
2026-05-04 00:01 29.36602 -100.78852 1080 ft 6 kts 18°
2026-05-04 00:02 29.36649 -100.78834 1080 ft 8 kts 25°
2026-05-04 00:02 29.36701 -100.78801 1079 ft 8 kts 50°
2026-05-04 00:02 29.36702 -100.78746 1079 ft 7 kts 125°
2026-05-04 00:02 29.36689 -100.78726 1078 ft 0 kts 136°
2026-05-04 00:03 29.36648 -100.78682 1079 ft 26 kts 136°
2026-05-04 00:03 29.36414 -100.78418 1085 ft 65 kts 135°
2026-05-04 00:03 29.36072 -100.78017 1199 ft 74 kts 138°
2026-05-04 00:03 29.35707 -100.77578 1353 ft 78 kts 136°
2026-05-04 00:04 29.35337 -100.77083 1472 ft 83 kts 131°
2026-05-04 00:04 29.34965 -100.76560 1612 ft 84 kts 129°
2026-05-04 00:04 29.34946 -100.75913 1784 ft 92 kts 68°
2026-05-04 00:04 29.35450 -100.75367 1914 ft 109 kts 40°
2026-05-04 00:05 29.36226 -100.75287 2017 ft 119 kts 340°
2026-05-04 00:05 29.36927 -100.75783 2046 ft 119 kts 320°
2026-05-04 00:05 29.37566 -100.76334 2060 ft 109 kts 320°
2026-05-04 00:05 29.38154 -100.76862 2058 ft 105 kts 320°
2026-05-04 00:06 29.38702 -100.77389 1987 ft 104 kts 317°
2026-05-04 00:06 29.39166 -100.77993 1971 ft 97 kts 285°
2026-05-04 00:06 29.39081 -100.78693 1881 ft 86 kts 229°
2026-05-04 00:06 29.38729 -100.79250 1706 ft 83 kts 224°
2026-05-04 00:07 29.38416 -100.79748 1565 ft 69 kts 224°
2026-05-04 00:07 29.38082 -100.80032 1504 ft 56 kts 171°
2026-05-04 00:07 29.37722 -100.79804 1386 ft 63 kts 146°
2026-05-04 00:07 29.37395 -100.79476 1289 ft 61 kts 142°
2026-05-04 00:08 29.37104 -100.79172 1205 ft 54 kts 144°
2026-05-04 00:08 29.36849 -100.78891 1139 ft 49 kts 140°
2026-05-04 00:08 29.36608 -100.78623 1093 ft 46 kts 144°
2026-05-04 00:08 29.36413 -100.78421 1083 ft 30 kts 136°
2026-05-04 00:09 29.36296 -100.78290 1084 ft 20 kts 135°
2026-05-04 00:09 29.36192 -100.78172 1083 ft 21 kts 136°
2026-05-04 00:09 29.36090 -100.78056 1082 ft 21 kts 135°
2026-05-04 00:09 29.35995 -100.77950 1079 ft 17 kts 135°
2026-05-04 00:10 29.35923 -100.77882 1080 ft 10 kts 167°
2026-05-04 00:10 29.35881 -100.77913 1081 ft 9 kts 229°
2026-05-04 00:10 29.35834 -100.77963 1082 ft 10 kts 221°
2026-05-04 00:10 29.35782 -100.78027 1082 ft 12 kts 222°
2026-05-04 00:11 29.35727 -100.78093 1082 ft 8 kts 238°
2026-05-04 00:11 29.35734 -100.78126 1082 ft 7 kts 320°
2026-05-04 00:11 29.35790 -100.78187 1081 ft 15 kts 316°
2026-05-04 00:11 29.35873 -100.78278 1082 ft 17 kts 314°
2026-05-04 00:12 29.35950 -100.78363 1084 ft 14 kts 316°
2026-05-04 00:12 29.36017 -100.78439 1084 ft 13 kts 315°
2026-05-04 00:12 29.36079 -100.78509 1084 ft 12 kts 314°
2026-05-04 00:12 29.36138 -100.78573 1085 ft 12 kts 311°
2026-05-04 00:13 29.36197 -100.78641 1084 ft 13 kts 316°
2026-05-04 00:13 29.36265 -100.78717 1083 ft 14 kts 316°
2026-05-04 00:13 29.36327 -100.78787 1083 ft 12 kts 315°
2026-05-04 00:13 29.36383 -100.78850 1082 ft 12 kts 315°
2026-05-04 00:14 29.36445 -100.78922 1081 ft 12 kts 313°
2026-05-04 00:14 29.36501 -100.78933 1080 ft 8 kts 52°
2026-05-04 00:14 29.36545 -100.78884 1080 ft 10 kts 41°
2026-05-04 00:14 29.36610 -100.78850 1080 ft 10 kts 18°
2026-05-04 00:15 29.36669 -100.78823 1080 ft 9 kts 32°
2026-05-04 00:15 29.36681 -100.78815 1080 ft 0 kts 25°
2026-05-04 00:16 29.36682 -100.78815 1080 ft 1 kts 29°
2026-05-04 00:16 29.36711 -100.78783 1079 ft 9 kts 72°
2026-05-04 00:16 29.36670 -100.78709 1078 ft 18 kts 136°
2026-05-04 00:16 29.36564 -100.78591 1081 ft 46 kts 135°
2026-05-04 00:17 29.36283 -100.78253 1155 ft 65 kts 137°
2026-05-04 00:17 29.35949 -100.77830 1271 ft 75 kts 134°
2026-05-04 00:17 29.35613 -100.77357 1418 ft 77 kts 133°
2026-05-04 00:17 29.35293 -100.76861 1591 ft 77 kts 132°
2026-05-04 00:18 29.35016 -100.76324 1706 ft 85 kts 108°
2026-05-04 00:18 29.35278 -100.75650 1865 ft 106 kts 49°
2026-05-04 00:18 29.35885 -100.75186 1940 ft 106 kts 16°
2026-05-04 00:18 29.36579 -100.75424 1987 ft 106 kts 318°
2026-05-04 00:19 29.37150 -100.75935 2046 ft 104 kts 317°
2026-05-04 00:19 29.37680 -100.76512 2066 ft 105 kts 308°
2026-05-04 00:19 29.38155 -100.77153 2033 ft 108 kts 306°
2026-05-04 00:19 29.38624 -100.77814 1951 ft 105 kts 305°
2026-05-04 00:20 29.39094 -100.78433 1883 ft 103 kts 309°
2026-05-04 00:20 29.39537 -100.79051 1839 ft 99 kts 293°
2026-05-04 00:20 29.39506 -100.79757 1780 ft 83 kts 228°
2026-05-04 00:20 29.39156 -100.80243 1738 ft 76 kts 221°
2026-05-04 00:21 29.38821 -100.80668 1626 ft 64 kts 199°
2026-05-04 00:21 29.38442 -100.80571 1532 ft 58 kts 150°
2026-05-04 00:21 29.38104 -100.80250 1477 ft 66 kts 143°
2026-05-04 00:21 29.37769 -100.79898 1413 ft 64 kts 142°
2026-05-04 00:22 29.37461 -100.79574 1305 ft 56 kts 143°
2026-05-04 00:22 29.37199 -100.79279 1225 ft 52 kts 144°
2026-05-04 00:22 29.36940 -100.79001 1174 ft 51 kts 143°
2026-05-04 00:22 29.36689 -100.78717 1121 ft 51 kts 142°
2026-05-04 00:23 29.36461 -100.78472 1082 ft 35 kts 141°
2026-05-04 00:23 29.36366 -100.78398 1084 ft 8 kts 189°
2026-05-04 00:23 29.36334 -100.78426 1085 ft 7 kts 225°
2026-05-04 00:23 29.36298 -100.78468 1086 ft 8 kts 227°
2026-05-04 00:24 29.36257 -100.78520 1086 ft 10 kts 224°
2026-05-04 00:24 29.36203 -100.78581 1085 ft 12 kts 222°
2026-05-04 00:24 29.36199 -100.78643 1084 ft 8 kts 316°
2026-05-04 00:24 29.36240 -100.78690 1083 ft 8 kts 313°
2026-05-04 00:25 29.36279 -100.78733 1082 ft 7 kts 315°
2026-05-04 00:25 29.36315 -100.78773 1083 ft 7 kts 315°
2026-05-04 00:25 29.36353 -100.78817 1083 ft 8 kts 315°
2026-05-04 00:25 29.36399 -100.78868 1082 ft 10 kts 316°
2026-05-04 00:26 29.36454 -100.78932 1081 ft 10 kts 316°
2026-05-04 00:26 29.36497 -100.78935 1080 ft 7 kts 49°
2026-05-04 00:26 29.36537 -100.78895 1080 ft 8 kts 38°
2026-05-04 00:26 29.36572 -100.78866 1080 ft 5 kts 19°
2026-05-04 00:27 29.36616 -100.78850 1080 ft 8 kts 22°
2026-05-04 00:27 29.36674 -100.78820 1080 ft 8 kts 26°
2026-05-04 00:27 29.36683 -100.78815 1080 ft 0 kts 28°
2026-05-04 00:29 29.36690 -100.78809 1079 ft 6 kts 33°
2026-05-04 00:29 29.36701 -100.78751 1079 ft 11 kts 122°
2026-05-04 00:29 29.36631 -100.78664 1079 ft 28 kts 136°
2026-05-04 00:29 29.36397 -100.78400 1084 ft 64 kts 136°
2026-05-04 00:30 29.36062 -100.78009 1192 ft 71 kts 135°
2026-05-04 00:30 29.35697 -100.77599 1326 ft 74 kts 135°
2026-05-04 00:30 29.35325 -100.77178 1441 ft 77 kts 134°
2026-05-04 00:30 29.34963 -100.76727 1602 ft 73 kts 132°
2026-05-04 00:31 29.34820 -100.76183 1774 ft 82 kts 83°
2026-05-04 00:31 29.35167 -100.75629 1883 ft 93 kts 50°
2026-05-04 00:31 29.35742 -100.75369 2081 ft 98 kts 348°
2026-05-04 00:31 29.36408 -100.75741 2058 ft 118 kts 322°
2026-05-04 00:32 29.37082 -100.76311 1981 ft 122 kts 318°
2026-05-04 00:32 29.37743 -100.76923 1941 ft 117 kts 317°
2026-05-04 00:32 29.38340 -100.77497 1879 ft 106 kts 317°
2026-05-04 00:32 29.38862 -100.78049 1799 ft 101 kts 310°
2026-05-04 00:33 29.38998 -100.78716 1750 ft 81 kts 244°
2026-05-04 00:33 29.38371 -100.79645 1532 ft 68 kts 216°
2026-05-04 00:33 29.38047 -100.79996 1530 ft 56 kts 197°
2026-05-04 00:34 29.37715 -100.79889 1480 ft 61 kts 134°
2026-05-04 00:34 29.37425 -100.79515 1360 ft 62 kts 141°
2026-05-04 00:34 29.37122 -100.79192 1235 ft 56 kts 142°
2026-05-04 00:34 29.36864 -100.78907 1156 ft 48 kts 139°
2026-05-04 00:35 29.36634 -100.78648 1108 ft 45 kts 144°
2026-05-04 00:35 29.36429 -100.78433 1083 ft 31 kts 139°
2026-05-04 00:35 29.36306 -100.78299 1084 ft 20 kts 136°
2026-05-04 00:35 29.36198 -100.78177 1082 ft 23 kts 136°
2026-05-04 00:36 29.36085 -100.78051 1082 ft 23 kts 136°
2026-05-04 00:36 29.35972 -100.77926 1080 ft 20 kts 135°
2026-05-04 00:36 29.35904 -100.77885 1080 ft 6 kts 207°
2026-05-04 00:36 29.35871 -100.77924 1081 ft 7 kts 227°
2026-05-04 00:37 29.35870 -100.77926 1081 ft 0 kts 230°
2026-05-04 00:37 29.35840 -100.77962 1082 ft 10 kts 225°
2026-05-04 00:37 29.35786 -100.78024 1082 ft 12 kts 224°
2026-05-04 00:38 29.35731 -100.78090 1082 ft 9 kts 241°
2026-05-04 00:38 29.35752 -100.78141 1082 ft 11 kts 314°
2026-05-04 00:38 29.35815 -100.78213 1081 ft 14 kts 315°
2026-05-04 00:38 29.35886 -100.78292 1083 ft 13 kts 318°
2026-05-04 00:39 29.35943 -100.78356 1084 ft 10 kts 315°
2026-05-04 00:39 29.35991 -100.78410 1084 ft 10 kts 315°
2026-05-04 00:39 29.36048 -100.78473 1084 ft 12 kts 317°
2026-05-04 00:39 29.36110 -100.78545 1085 ft 13 kts 315°
2026-05-04 00:40 29.36175 -100.78616 1085 ft 12 kts 316°
2026-05-04 00:40 29.36236 -100.78685 1083 ft 12 kts 315°
2026-05-04 00:40 29.36293 -100.78750 1082 ft 11 kts 316°
2026-05-04 00:40 29.36343 -100.78804 1083 ft 10 kts 314°
2026-05-04 00:41 29.36389 -100.78857 1082 ft 8 kts 318°
2026-05-04 00:41 29.36395 -100.78903 1082 ft 6 kts 210°
2026-05-04 00:41 29.36374 -100.78900 1082 ft 2 kts 136°
2026-05-04 00:41 29.36369 -100.78894 1082 ft 2 kts 133°
2026-05-04 00:42 29.36368 -100.78893 1082 ft 0 kts 128°